Location: Chakepay
(13.3931°S, 72.1925°W)
Time: 19:03:40
(UTC+00:00)

ATLAS 2AS CENTAUR R/B - Pass Details

Date: 15 November 2019
Orbit: 926 x 1286 km, 63.7° (Epoch: 02 December)

Event Time Altitude Azimuth Distance (km) Brightness Sun altitude
Rises 00:39:11 0° 215° (SW) 3,868 6.6 -24.2°
Reaches altitude 10° 00:41:51 10° 221° (SW) 2,960 5.9 -24.7°
Maximum altitude 00:48:34 47° 292° (WNW) 1,513 3.6 -26.2°
Enters shadow 00:53:22 21° 354° (N) 2,409 4.3 -27.2°
